カタログに戻る

STARLINK-33895

運用中通信VLEO
NORAD 63934·PAYLOAD·🇺🇸 United States

打ち上げ May 13, 2025 から Vandenberg Space Force Base

Loading…

次のパス (今後24時間)

TLE

最新Source: CelesTrak SupGP

元期: Sep 14, 2026, 22:33 UTC

1 63934C 25098J   26257.94006944 -.00006110  00000+0 -21270-3 0  2578
2 63934  70.0001 155.4309 0003291 263.1052 217.9309 15.29559054    13

AllMySatでSTARLINK-33895をリアルタイム追跡

Download on the App Store